Time,TemperatureF,DewpointF,PressureIn,WindDirection,WindDirectionDegrees,WindSpeedMPH,WindSpeedGustMPH,Humidity,HourlyPrecipIn,Conditions,Clouds,dailyrainin,SoftwareType,DateUTC
2013-03-05 00:13:00,33.8,23.0,29.97,NW,319,7.0,-999.0,66,-99.99,,,0.00,weatherlink.com 1.10,2013-03-05 05:13:00,
2013-03-05 00:28:00,33.7,24.0,29.96,NW,306,8.0,-999.0,67,-99.99,,,0.00,weatherlink.com 1.10,2013-03-05 05:28:00,
2013-03-05 00:43:00,33.3,23.0,29.97,WNW,296,9.0,-999.0,66,-99.99,,,0.00,weatherlink.com 1.10,2013-03-05 05:43:00,
2013-03-05 00:58:00,32.7,23.0,29.97,WNW,290,2.0,-999.0,67,-99.99,,,0.00,weatherlink.com 1.10,2013-03-05 05:58:00,
2013-03-05 01:13:00,31.5,22.0,29.97,West,280,4.0,-999.0,69,-99.99,,,0.00,weatherlink.com 1.10,2013-03-05 06:13:00,
2013-03-05 01:28:00,31.0,22.0,29.98,West,279,4.0,-999.0,70,-99.99,,,0.00,weatherlink.com 1.10,2013-03-05 06:28:00,
2013-03-05 01:43:00,30.6,22.0,29.98,West,277,0.0,-999.0,70,-99.99,,,0.00,weatherlink.com 1.10,2013-03-05 06:43:00,
2013-03-05 01:58:00,30.3,22.0,29.99,West,275,4.0,-999.0,71,-99.99,,,0.00,weatherlink.com 1.10,2013-03-05 06:58:00,
2013-03-05 02:16:00,30.1,22.0,30.00,West,277,6.0,-999.0,72,-99.99,,,0.00,weatherlink.com 1.10,2013-03-05 07:16:00,
2013-03-05 02:28:00,30.1,22.0,30.00,West,281,6.0,-999.0,72,-99.99,,,0.00,weatherlink.com 1.10,2013-03-05 07:28:00,
2013-03-05 02:43:00,30.2,22.0,29.99,WNW,292,3.0,-999.0,72,-99.99,,,0.00,weatherlink.com 1.10,2013-03-05 07:43:00,
2013-03-05 02:58:00,30.2,22.0,29.99,WNW,292,5.0,-999.0,72,-99.99,,,0.00,weatherlink.com 1.10,2013-03-05 07:58:00,
2013-03-05 03:13:00,30.2,22.0,29.99,WNW,292,1.0,-999.0,72,-99.99,,,0.00,weatherlink.com 1.10,2013-03-05 08:13:00,
2013-03-05 03:28:00,30.0,22.0,29.99,WNW,292,4.0,-999.0,72,-99.99,,,0.00,weatherlink.com 1.10,2013-03-05 08:28:00,
2013-03-05 03:43:00,29.9,22.0,30.00,WNW,291,3.0,-999.0,73,-99.99,,,0.00,weatherlink.com 1.10,2013-03-05 08:43:00,
2013-03-05 03:58:00,29.8,22.0,30.00,WNW,292,3.0,-999.0,73,-99.99,,,0.00,weatherlink.com 1.10,2013-03-05 08:58:00,
2013-03-05 04:13:00,29.8,22.0,30.00,WNW,298,4.0,-999.0,73,-99.99,,,0.00,weatherlink.com 1.10,2013-03-05 09:13:00,
2013-03-05 04:28:00,30.5,22.0,30.00,WNW,293,4.0,-999.0,72,-99.99,,,0.00,weatherlink.com 1.10,2013-03-05 09:28:00,
2013-03-05 04:43:00,30.6,23.0,30.00,WNW,286,7.0,-999.0,72,-99.99,,,0.00,weatherlink.com 1.10,2013-03-05 09:43:00,
2013-03-05 04:58:00,31.0,23.0,30.01,NW,312,4.0,-999.0,71,-99.99,,,0.00,weatherlink.com 1.10,2013-03-05 09:58:00,
2013-03-05 05:13:00,30.7,22.0,30.01,WNW,297,8.0,-999.0,71,-99.99,,,0.00,weatherlink.com 1.10,2013-03-05 10:13:00,
2013-03-05 05:28:00,30.7,22.0,30.01,WNW,301,3.0,-999.0,71,-99.99,,,0.00,weatherlink.com 1.10,2013-03-05 10:28:00,
2013-03-05 05:43:00,30.3,22.0,30.02,WNW,284,2.0,-999.0,72,-99.99,,,0.00,weatherlink.com 1.10,2013-03-05 10:43:00,
2013-03-05 05:58:00,29.7,22.0,30.02,West,281,3.0,-999.0,72,-99.99,,,0.00,weatherlink.com 1.10,2013-03-05 10:58:00,
2013-03-05 06:13:00,29.4,21.0,30.02,West,279,4.0,-999.0,72,-99.99,,,0.00,weatherlink.com 1.10,2013-03-05 11:13:00,
2013-03-05 06:34:00,29.0,21.0,30.02,WNW,283,0.0,-999.0,73,-99.99,,,0.00,weatherlink.com 1.10,2013-03-05 11:34:00,
2013-03-05 06:43:00,29.0,21.0,30.02,West,281,0.0,-999.0,73,-99.99,,,0.00,weatherlink.com 1.10,2013-03-05 11:43:00,
2013-03-05 06:58:00,29.3,22.0,30.02,WNW,295,1.0,-999.0,74,-99.99,,,0.00,weatherlink.com 1.10,2013-03-05 11:58:00,
2013-03-05 07:13:00,29.7,22.0,30.03,West,277,0.0,-999.0,73,-99.99,,,0.00,weatherlink.com 1.10,2013-03-05 12:13:00,
2013-03-05 07:28:00,30.3,23.0,30.03,WNW,284,6.0,-999.0,73,-99.99,,,0.00,weatherlink.com 1.10,2013-03-05 12:28:00,
2013-03-05 07:43:00,31.0,23.0,30.03,WNW,292,3.0,-999.0,71,-99.99,,,0.00,weatherlink.com 1.10,2013-03-05 12:43:00,
2013-03-05 07:58:00,31.9,23.0,30.04,WNW,292,6.0,-999.0,70,-99.99,,,0.00,weatherlink.com 1.10,2013-03-05 12:58:00,
2013-03-05 08:13:00,32.8,23.0,30.04,WNW,302,3.0,-999.0,68,-99.99,,,0.00,weatherlink.com 1.10,2013-03-05 13:13:00,
2013-03-05 08:28:00,33.6,24.0,30.05,NNW,329,0.0,-999.0,67,-99.99,,,0.00,weatherlink.com 1.10,2013-03-05 13:28:00,
2013-03-05 08:43:00,34.4,24.0,30.04,NNW,327,9.0,-999.0,67,-99.99,,,0.00,weatherlink.com 1.10,2013-03-05 13:43:00,
2013-03-05 08:58:00,35.0,25.0,30.03,NNW,338,8.0,-999.0,68,-99.99,,,0.00,weatherlink.com 1.10,2013-03-05 13:58:00,
2013-03-05 09:13:00,35.7,26.0,30.04,NW,324,11.0,-999.0,67,-99.99,,,0.00,weatherlink.com 1.10,2013-03-05 14:13:00,
2013-03-05 09:28:00,36.1,26.0,30.03,NW,324,6.0,-999.0,66,-99.99,,,0.00,weatherlink.com 1.10,2013-03-05 14:28:00,
2013-03-05 09:43:00,36.4,26.0,30.03,NW,315,8.0,-999.0,66,-99.99,,,0.00,weatherlink.com 1.10,2013-03-05 14:43:00,
2013-03-05 09:58:00,36.8,26.0,30.04,NNW,327,5.0,-999.0,65,-99.99,,,0.00,weatherlink.com 1.10,2013-03-05 14:58:00,
2013-03-05 10:28:00,37.6,26.0,30.03,NNW,327,7.0,-999.0,63,-99.99,,,0.00,weatherlink.com 1.10,2013-03-05 15:28:00,
2013-03-05 10:43:00,38.2,26.0,30.03,North,349,6.0,-999.0,63,-99.99,,,0.00,weatherlink.com 1.10,2013-03-05 15:43:00,
2013-03-05 10:58:00,38.4,27.0,30.03,North,360,6.0,-999.0,63,-99.99,,,0.00,weatherlink.com 1.10,2013-03-05 15:58:00,
2013-03-05 11:13:00,38.0,27.0,30.02,North,5,9.0,-999.0,65,-99.99,,,0.00,weatherlink.com 1.10,2013-03-05 16:13:00,
2013-03-05 11:28:00,37.4,27.0,30.02,North,5,7.0,-999.0,67,-99.99,,,0.00,weatherlink.com 1.10,2013-03-05 16:28:00,
2013-03-05 11:43:00,38.2,28.0,30.01,North,355,10.0,-999.0,67,-99.99,,,0.00,weatherlink.com 1.10,2013-03-05 16:43:00,
2013-03-05 11:58:00,38.9,28.0,30.01,North,360,9.0,-999.0,66,-99.99,,,0.00,weatherlink.com 1.10,2013-03-05 16:58:00,
2013-03-05 12:13:00,38.6,28.0,30.00,North,5,1.0,-999.0,65,-99.99,,,0.00,weatherlink.com 1.10,2013-03-05 17:13:00,
2013-03-05 12:28:00,38.7,28.0,30.00,North,11,9.0,-999.0,65,-99.99,,,0.00,weatherlink.com 1.10,2013-03-05 17:28:00,
2013-03-05 12:43:00,39.0,28.0,30.00,North,5,6.0,-999.0,64,-99.99,,,0.00,weatherlink.com 1.10,2013-03-05 17:43:00,
2013-03-05 12:58:00,39.5,29.0,30.01,North,9,10.0,-999.0,65,-99.99,,,0.00,weatherlink.com 1.10,2013-03-05 17:58:00,
2013-03-05 13:13:00,39.1,28.0,30.00,NNE,22,7.0,-999.0,65,-99.99,,,0.00,weatherlink.com 1.10,2013-03-05 18:13:00,
2013-03-05 13:28:00,39.4,29.0,29.99,NNE,24,9.0,-999.0,66,-99.99,,,0.00,weatherlink.com 1.10,2013-03-05 18:28:00,
2013-03-05 13:43:00,40.0,29.0,29.99,NNE,25,5.0,-999.0,65,-99.99,,,0.00,weatherlink.com 1.10,2013-03-05 18:43:00,
2013-03-05 13:58:00,40.9,30.0,29.98,NNE,32,5.0,-999.0,65,-99.99,,,0.00,weatherlink.com 1.10,2013-03-05 18:58:00,
2013-03-05 14:13:00,42.1,31.0,29.98,NE,37,3.0,-999.0,65,-99.99,,,0.00,weatherlink.com 1.10,2013-03-05 19:13:00,
2013-03-05 14:28:00,41.5,30.0,29.97,NE,44,4.0,-999.0,64,-99.99,,,0.00,weatherlink.com 1.10,2013-03-05 19:28:00,
2013-03-05 14:43:00,41.8,31.0,29.97,NE,46,2.0,-999.0,65,-99.99,,,0.00,weatherlink.com 1.10,2013-03-05 19:43:00,
2013-03-05 14:58:00,42.0,31.0,29.96,NE,46,0.0,-999.0,65,-99.99,,,0.00,weatherlink.com 1.10,2013-03-05 19:58:00,
2013-03-05 15:13:00,41.5,31.0,29.97,NE,46,1.0,-999.0,67,-99.99,,,0.00,weatherlink.com 1.10,2013-03-05 20:13:00,
2013-03-05 15:28:00,41.0,32.0,29.96,NE,51,0.0,-999.0,69,-99.99,,,0.00,weatherlink.com 1.10,2013-03-05 20:28:00,
2013-03-05 15:43:00,41.6,31.0,29.95,ENE,67,3.0,-999.0,65,-99.99,,,0.00,weatherlink.com 1.10,2013-03-05 20:43:00,
2013-03-05 15:58:00,41.6,31.0,29.95,East,81,0.0,-999.0,65,-99.99,,,0.00,weatherlink.com 1.10,2013-03-05 20:58:00,
2013-03-05 16:13:00,42.2,29.0,29.94,East,86,3.0,-999.0,61,-99.99,,,0.00,weatherlink.com 1.10,2013-03-05 21:13:00,
2013-03-05 16:28:00,42.2,29.0,29.94,SE,138,8.0,-999.0,59,-99.99,,,0.00,weatherlink.com 1.10,2013-03-05 21:28:00,
2013-03-05 16:43:00,40.9,30.0,29.95,SE,130,10.0,-999.0,65,-99.99,,,0.00,weatherlink.com 1.10,2013-03-05 21:43:00,
2013-03-05 16:58:00,40.3,29.0,29.95,SE,138,9.0,-999.0,64,-99.99,,,0.00,weatherlink.com 1.10,2013-03-05 21:58:00,
2013-03-05 17:13:00,39.5,28.0,29.95,SE,145,8.0,-999.0,64,-99.99,,,0.00,weatherlink.com 1.10,2013-03-05 22:13:00,
2013-03-05 17:28:00,39.4,29.0,29.96,SE,139,5.0,-999.0,66,-99.99,,,0.00,weatherlink.com 1.10,2013-03-05 22:28:00,
2013-03-05 17:43:00,38.6,30.0,29.96,SSE,161,7.0,-999.0,70,-99.99,,,0.00,weatherlink.com 1.10,2013-03-05 22:43:00,
2013-03-05 17:58:00,37.9,30.0,29.96,SSE,163,10.0,-999.0,72,-99.99,,,0.00,weatherlink.com 1.10,2013-03-05 22:58:00,
2013-03-05 18:13:00,37.5,30.0,29.97,South,174,8.0,-999.0,74,-99.99,,,0.00,weatherlink.com 1.10,2013-03-05 23:13:00,
2013-03-05 18:28:00,37.1,30.0,29.97,SSE,167,7.0,-999.0,75,-99.99,,,0.00,weatherlink.com 1.10,2013-03-05 23:28:00,
2013-03-05 18:43:00,36.8,30.0,29.97,SSE,162,2.0,-999.0,75,-99.99,,,0.00,weatherlink.com 1.10,2013-03-05 23:43:00,
2013-03-05 18:58:00,36.6,30.0,29.97,SSE,159,5.0,-999.0,76,-99.99,,,0.00,weatherlink.com 1.10,2013-03-05 23:58:00,
2013-03-05 19:13:00,36.6,30.0,29.97,South,171,6.0,-999.0,77,-99.99,,,0.00,weatherlink.com 1.10,2013-03-06 00:13:00,
2013-03-05 19:28:00,36.8,30.0,29.97,SSE,163,2.0,-999.0,77,-99.99,,,0.00,weatherlink.com 1.10,2013-03-06 00:28:00,
2013-03-05 19:43:00,37.0,30.0,29.97,SSE,167,12.0,-999.0,77,-99.99,,,0.00,weatherlink.com 1.10,2013-03-06 00:43:00,
2013-03-05 19:58:00,37.1,31.0,29.96,SSE,164,8.0,-999.0,77,-99.99,,,0.00,weatherlink.com 1.10,2013-03-06 00:58:00,
2013-03-05 20:13:00,37.3,31.0,29.96,SSE,157,8.0,-999.0,78,-99.99,,,0.00,weatherlink.com 1.10,2013-03-06 01:13:00,
2013-03-05 20:28:00,37.3,31.0,29.95,SSE,148,2.0,-999.0,78,-99.99,,,0.00,weatherlink.com 1.10,2013-03-06 01:28:00,
2013-03-05 20:43:00,37.4,31.0,29.95,SE,140,8.0,-999.0,79,-99.99,,,0.00,weatherlink.com 1.10,2013-03-06 01:43:00,
2013-03-05 20:58:00,37.4,31.0,29.95,SE,143,6.0,-999.0,79,-99.99,,,0.00,weatherlink.com 1.10,2013-03-06 01:58:00,
2013-03-05 21:13:00,37.5,32.0,29.95,SE,146,6.0,-999.0,80,-99.99,,,0.00,weatherlink.com 1.10,2013-03-06 02:13:00,
2013-03-05 21:28:00,37.5,32.0,29.94,SE,144,0.0,-999.0,80,-99.99,,,0.00,weatherlink.com 1.10,2013-03-06 02:28:00,
2013-03-05 21:43:00,37.5,32.0,29.93,SE,144,5.0,-999.0,81,-99.99,,,0.00,weatherlink.com 1.10,2013-03-06 02:43:00,
2013-03-05 21:58:00,37.5,32.0,29.93,SE,131,5.0,-999.0,81,-99.99,,,0.00,weatherlink.com 1.10,2013-03-06 02:58:00,
2013-03-05 22:13:00,37.5,33.0,29.92,ESE,119,3.0,-999.0,82,-99.99,,,0.00,weatherlink.com 1.10,2013-03-06 03:13:00,
2013-03-05 22:28:00,37.6,33.0,29.92,SE,126,1.0,-999.0,82,-99.99,,,0.00,weatherlink.com 1.10,2013-03-06 03:28:00,
2013-03-05 22:43:00,37.8,33.0,29.91,SE,136,3.0,-999.0,83,-99.99,,,0.00,weatherlink.com 1.10,2013-03-06 03:43:00,
2013-03-05 22:58:00,37.9,33.0,29.90,ESE,114,5.0,-999.0,82,-99.99,,,0.00,weatherlink.com 1.10,2013-03-06 03:58:00,
2013-03-05 23:13:00,38.0,33.0,29.89,ESE,120,0.0,-999.0,83,-99.99,,,0.00,weatherlink.com 1.10,2013-03-06 04:13:00,
2013-03-05 23:28:00,38.4,34.0,29.87,ESE,107,4.0,-999.0,83,-99.99,,,0.00,weatherlink.com 1.10,2013-03-06 04:28:00,
2013-03-05 23:43:00,39.1,35.0,29.86,ESE,107,9.0,-999.0,84,-99.99,,,0.00,weatherlink.com 1.10,2013-03-06 04:43:00,
2013-03-05 23:58:00,39.3,35.0,29.85,ESE,103,16.0,-999.0,84,-99.99,,,0.00,weatherlink.com 1.10,2013-03-06 04:58:00,